Location: ???
(35.5616°N, 139.7977°E)
Time: 13:02:50
(UTC+00:00)

ATLAS 3B R/B - Visible Passes

Search period start: 14 February 2026 00:00
Search period end: 24 February 2026 00:00
Orbit: 936 x 1258 km, 63.8° (Epoch: 13 February)

Date Brightness Start Highest point End Pass type
(mag) Time Alt. Az. Time Alt. Az. Time Alt. Az.
14 Feb 5.3 08:41:47 10° NW 08:47:57 28° WSW 08:53:48 10° SSW visible
14 Feb 5.4 20:38:02 10° SSE 20:43:44 25° ESE 20:49:41 10° NE visible
15 Feb 5.9 19:53:38 10° SE 19:56:46 13° ESE 19:59:58 10° ENE visible
16 Feb 6.2 09:00:15 10° W 09:02:53 12° WSW 09:05:28 10° WSW visible
16 Feb 4.1 20:51:52 10° S 20:58:54 50° ESE 21:06:20 10° NE visible
17 Feb 5.0 20:05:36 10° SSE 20:11:43 29° ESE 20:18:08 10° NE visible
18 Feb 5.5 19:20:31 10° SE 19:24:43 16° ESE 19:29:01 10° ENE visible
19 Feb 3.7 20:19:46 10° SSW 20:26:57 58° ESE 20:34:34 10° NE visible
20 Feb 4.5 19:33:16 10° S 19:39:43 34° ESE 19:46:31 10° NE visible
21 Feb 5.2 18:47:43 10° SSE 18:52:40 19° ESE 18:57:46 10° ENE visible
21 Feb 3.0 20:35:05 10° SW 20:42:30 77° WNW 20:50:24 10° NNE visible
22 Feb 3.3 19:47:44 10° SSW 19:55:01 67° ESE 20:02:47 10° NE visible
23 Feb 4.1 19:01:00 10° S 19:07:45 40° ESE 19:14:50 10° NE visible
23 Feb 3.4 20:51:20 10° WSW 20:58:25 43° NW 21:05:51 10° NNE visible
